Flag for Kazakhstan Weather past 2 weeks in Astana, Kazakhstan

Now
68 °F

More clouds than sun.


Feels Like: 68 °F
Forecast: 48 / 81 °F
Wind: 8 mph from East

Location: Astana

Current Time: Aug 28, 2014 at 7:58:36 PM

Latest Report: Aug 28, 2014 at 7:30 PM


Visibility: N/A

Pressure: 30.09 "Hg

Humidity: 30%

Dew point: 36 °F

Location of AstanaLocation

Historic Weather in Astana — Graph

°F

Astana temperature yesterday

Maximum temperature yesterday: 68 °F (at 3:00 PM)
Minimum temperature yesterday: 41 °F (at 6:00 AM)
Average temperature yesterday: 56 °F

Past Weeks' High & Low Weather Summary

 TemperatureHumidityPressure
High100 °F (Aug 24, 2:30 PM)94% (Aug 14, 3:00 AM)30.24 "Hg (Aug 14, 3:00 AM)
Low41 °F (Aug 27, 6:00 AM)10% (Aug 19, 2:30 PM)29.59 "Hg (Aug 14, 4:00 PM)
Average69 °F52%29.94 "Hg
* Reported Aug 13 6:00 PM — Aug 28 6:30 PM, Astana, Weather by CustomWeather, © 2014

Note: Actual official high and low records may vary slightly from our data, if they occured in-between our weather recording intervals... More about our weather records

Advertising

Astana weather history for previous 24 hours

 ConditionsComfort  
Time TempWeatherWind HumidityBarometerVisibility
6:30 PM
Aug 28
70 °FMore clouds than sun.6 mph29%30.09 "HgN/A
6:00 PM72 °FOvercast.6 mph27%30.09 "HgN/A
5:30 PM72 °FSunny.6 mph22%30.09 "Hg10 mi
5:00 PM73 °FSunny.8 mph20%30.09 "Hg10 mi
4:30 PM73 °FPassing clouds.6 mph22%30.09 "HgN/A
4:00 PM75 °FPassing clouds.8 mph22%30.09 "HgN/A
3:30 PM73 °FPassing clouds.8 mph20%30.09 "HgN/A
3:00 PM73 °FPassing clouds.8 mph25%30.09 "HgN/A
2:30 PM73 °FPassing clouds.6 mph23%30.09 "HgN/A
2:00 PM72 °FPassing clouds.6 mph27%30.09 "HgN/A
1:30 PM72 °FPassing clouds.10 mph27%30.09 "HgN/A
1:00 PM72 °FSunny.8 mph29%30.12 "Hg10 mi
12:30 PM72 °FPassing clouds.8 mph29%30.12 "HgN/A
12:00 PM70 °FPassing clouds.8 mph33%30.12 "HgN/A
11:30 AM68 °FPassing clouds.8 mph35%30.15 "HgN/A
11:00 AM68 °FPassing clouds.8 mph35%30.15 "HgN/A
10:30 AM63 °FSunny.8 mph45%30.15 "Hg10 mi
10:00 AM63 °FPassing clouds.6 mph49%30.15 "HgN/A
9:30 AM61 °FPassing clouds.6 mph52%30.15 "HgN/A
9:00 AM59 °FSunny.6 mph55%30.15 "Hg10 mi
8:30 AM57 °FSunny.10 mph59%30.15 "Hg10 mi
8:00 AM55 °FSunny.8 mph63%30.15 "Hg10 mi
7:30 AM54 °FSunny.8 mph67%30.15 "Hg10 mi
7:00 AM54 °FPassing clouds.8 mph67%30.12 "HgN/A
6:30 AM54 °FPassing clouds.6 mph67%30.12 "HgN/A
6:00 AM52 °FClear.6 mph72%30.12 "Hg10 mi
5:30 AM52 °FClear.6 mph72%30.12 "Hg10 mi
5:00 AM54 °FClear.8 mph67%30.15 "Hg10 mi
4:30 AM55 °FClear.6 mph63%30.15 "Hg10 mi
4:00 AM54 °FClear.6 mph63%30.15 "Hg10 mi
3:30 AM55 °FClear.8 mph63%30.15 "Hg10 mi
3:00 AM55 °FClear.8 mph63%30.15 "Hg10 mi
2:30 AM55 °FClear.10 mph63%30.15 "Hg10 mi
2:00 AM55 °FClear.10 mph63%30.15 "Hg10 mi
1:30 AM55 °FClear.8 mph67%30.15 "Hg10 mi
1:00 AM52 °FClear.10 mph72%30.18 "Hg10 mi
12:30 AM50 °FClear.8 mph76%30.15 "Hg10 mi
11:30 PM
Aug 27
48 °FClear.10 mph76%30.15 "Hg10 mi
11:00 PM48 °FClear.8 mph76%30.18 "Hg10 mi
10:30 PM50 °FClear.8 mph71%30.18 "Hg10 mi
10:00 PM52 °FClear.10 mph67%30.18 "Hg10 mi
9:00 PM54 °FClear.10 mph63%30.15 "Hg10 mi
8:30 PM57 °FClear.10 mph55%30.15 "Hg10 mi
8:00 PM59 °FSunny.8 mph48%30.15 "Hg10 mi
7:30 PM63 °FSunny.6 mph39%30.15 "Hg10 mi
7:00 PM66 °FPassing clouds.6 mph32%30.15 "HgN/A
Weather by CustomWeather, © 2014

See weather overviewHow to use our weather pages